User: anonymous   Login
Location: Minneapolis
(44.9800°N, 93.2640°W)
Time: 23:09:51
(UTC-05:00)
Language:

Iridium 96 - Orbit

View from above orbital plane
View from above orbital plane
View from above satellite
View from above satellite

Ground track
Ground track

The orbit data is extracted from the following two-line orbital elements,

1 27376U 02005E   18170.44366485  .00019405 -98686-6  19988-3 0  9990
2 27376  86.3787 154.0995 0286631 205.8617 152.8072 15.27376807870325
Epoch (UTC): 19 June 2018 10:38:52
Eccentricity: 0.0286631
inclination: 86.3787°
perigee height: 287 km
apogee height: 680 km
right ascension of ascending node: 154.0995°
argument of perigee: 205.8617°
revolutions per day: 15.27376807
mean anomaly at epoch: 152.8072°
orbit number at epoch: 87032

The dashed part of the orbit path shows where the satellite is in the earth's shadow,  

DLR